owner,sensor,date,latitude,longitude,vertical_datum,wind_speed,wind_to_direction,wind_speed_of_gust,qcFlag 
COMPS,ioos:station:USF.COMPS:CAM:1,2011-08-01T00:00:00Z,27.7650,-82.6490,10.0,1.0,10.0,,'1111122,1111122,1111122' 
COMPS,ioos:station:USF.COMPS:CAM:1,2011-08-01T01:00:00Z,27.7650,-82.6490,10.0,0.5,90.0,,'1111122,1111122,1111122' 
COMPS,ioos:station:USF.COMPS:CAM:1,2011-08-01T02:00:00Z,27.7650,-82.6490,10.0,0.5,100.0,,'1111122,1111122,1111122' 
COMPS,ioos:station:USF.COMPS:CAM:1,2011-08-01T04:00:00Z,27.7650,-82.6490,10.0,1.0,120.0,,'1111122,1111122,1111122' 
COMPS,ioos:station:USF.COMPS:CAM:1,2011-08-01T05:00:00Z,27.7650,-82.6490,10.0,0.5,110.0,,'1111122,1111122,1111122' 
COMPS,ioos:station:USF.COMPS:CAM:1,2011-08-01T06:00:00Z,27.7650,-82.6490,10.0,0.5,120.0,,'1111122,1111122,1111122' 
COMPS,ioos:station:USF.COMPS:CAM:1,2011-08-01T12:00:00Z,27.7650,-82.6490,10.0,1.5,230.0,,'1111122,1111122,1111122' 
COMPS,ioos:station:USF.COMPS:CAM:1,2011-08-01T16:00:00Z,27.7650,-82.6490,10.0,2.1,230.0,,'1111122,1111122,1111122' 
COMPS,ioos:station:USF.COMPS:CAM:1,2011-08-01T17:00:00Z,27.7650,-82.6490,10.0,2.1,240.0,,'1111122,1111122,1111122' 
COMPS,ioos:station:USF.COMPS:CAM:1,2011-08-01T18:00:00Z,27.7650,-82.6490,10.0,2.1,250.0,,'1111122,1111122,1111122' 
COMPS,ioos:station:USF.COMPS:CAM:1,2011-08-01T19:00:00Z,27.7650,-82.6490,10.0,2.1,250.0,,'1111122,1111122,1111122' 
COMPS,ioos:station:USF.COMPS:CAM:1,2011-08-01T20:00:00Z,27.7650,-82.6490,10.0,2.6,240.0,,'1111122,1111122,1111122' 
COMPS,ioos:station:USF.COMPS:CAM:1,2011-08-01T21:00:00Z,27.7650,-82.6490,10.0,2.1,250.0,,'1111122,1111122,1111122' 
COMPS,ioos:station:USF.COMPS:CAM:1,2011-08-01T22:00:00Z,27.7650,-82.6490,10.0,1.5,250.0,,'1111122,1111122,1111122' 
COMPS,ioos:station:USF.COMPS:CAM:1,2011-08-01T23:00:00Z,27.7650,-82.6490,10.0,1.0,240.0,,'1111122,1111122,1111122' 
COMPS,ioos:station:USF.COMPS:CAM:1,2011-08-02T00:00:00Z,27.7650,-82.6490,10.0,1.0,230.0,,'1111122,1111122,1111122' 
COMPS,ioos:station:USF.COMPS:CAM:1,2011-08-02T01:00:00Z,27.7650,-82.6490,10.0,2.1,80.0,,'1111122,1111122,1111122' 
COMPS,ioos:station:USF.COMPS:CAM:1,2011-08-02T02:00:00Z,27.7650,-82.6490,10.0,0.5,90.0,,'1111122,1111122,1111122' 
COMPS,ioos:station:USF.COMPS:CAM:1,2011-08-02T03:00:00Z,27.7650,-82.6490,10.0,1.0,40.0,,'1111122,1111122,1111122' 
COMPS,ioos:station:USF.COMPS:CAM:1,2011-08-02T07:00:00Z,27.7650,-82.6490,10.0,1.0,120.0,,'1111122,1111122,1111122' 
COMPS,ioos:station:USF.COMPS:CAM:1,2011-08-02T08:00:00Z,27.7650,-82.6490,10.0,1.0,120.0,,'1111122,1111122,1111122' 
COMPS,ioos:station:USF.COMPS:CAM:1,2011-08-02T09:00:00Z,27.7650,-82.6490,10.0,0.5,100.0,,'1111122,1111122,1111122' 
COMPS,ioos:station:USF.COMPS:CAM:1,2011-08-02T13:00:00Z,27.7650,-82.6490,10.0,0.5,180.0,,'1111122,1111122,1111122' 
COMPS,ioos:station:USF.COMPS:CAM:1,2011-08-02T14:00:00Z,27.7650,-82.6490,10.0,0.5,230.0,,'1111122,1111122,1111122' 
COMPS,ioos:station:USF.COMPS:CAM:1,2011-08-02T15:00:00Z,27.7650,-82.6490,10.0,1.5,220.0,,'1111122,1111122,1111122' 
COMPS,ioos:station:USF.COMPS:CAM:1,2011-08-02T16:00:00Z,27.7650,-82.6490,10.0,1.5,210.0,,'1111122,1111122,1111122' 
COMPS,ioos:station:USF.COMPS:CAM:1,2011-08-02T17:00:00Z,27.7650,-82.6490,10.0,2.1,210.0,,'1111122,1111122,1111122' 
COMPS,ioos:station:USF.COMPS:CAM:1,2011-08-02T18:00:00Z,27.7650,-82.6490,10.0,3.1,220.0,,'1111122,1111122,1111122' 
COMPS,ioos:station:USF.COMPS:CAM:1,2011-08-02T19:00:00Z,27.7650,-82.6490,10.0,2.6,230.0,,'1111122,1111122,1111122' 
COMPS,ioos:station:USF.COMPS:CAM:1,2011-08-02T20:00:00Z,27.7650,-82.6490,10.0,2.6,240.0,,'1111122,1111122,1111122' 
COMPS,ioos:station:USF.COMPS:CAM:1,2011-08-02T21:00:00Z,27.7650,-82.6490,10.0,2.1,250.0,,'1111122,1111122,1111122' 
COMPS,ioos:station:USF.COMPS:CAM:1,2011-08-02T22:00:00Z,27.7650,-82.6490,10.0,2.1,230.0,,'1111122,1111122,1111122' 
COMPS,ioos:station:USF.COMPS:CAM:1,2011-08-02T23:00:00Z,27.7650,-82.6490,10.0,2.6,240.0,,'1111122,1111122,1111122' 
COMPS,ioos:station:USF.COMPS:CAM:1,2011-08-03T00:00:00Z,27.7650,-82.6490,10.0,1.0,230.0,,'1111122,1111122,1111122' 
COMPS,ioos:station:USF.COMPS:CAM:1,2011-08-03T01:00:00Z,27.7650,-82.6490,10.0,1.0,240.0,,'1111122,1111122,1111122' 
COMPS,ioos:station:USF.COMPS:CAM:1,2011-08-03T02:00:00Z,27.7650,-82.6490,10.0,1.0,230.0,,'1111122,1111122,1111122' 
COMPS,ioos:station:USF.COMPS:CAM:1,2011-08-03T03:00:00Z,27.7650,-82.6490,10.0,0.5,250.0,,'1111122,1111122,1111122' 
COMPS,ioos:station:USF.COMPS:CAM:1,2011-08-03T04:00:00Z,27.7650,-82.6490,10.0,1.0,280.0,,'1111122,1111122,1111122' 
COMPS,ioos:station:USF.COMPS:CAM:1,2011-08-03T08:00:00Z,27.7650,-82.6490,10.0,1.5,280.0,,'1111122,1111122,1111122' 
COMPS,ioos:station:USF.COMPS:CAM:1,2011-08-03T13:00:00Z,27.7650,-82.6490,10.0,1.0,210.0,,'1111122,1111122,1111122' 
COMPS,ioos:station:USF.COMPS:CAM:1,2011-08-03T14:00:00Z,27.7650,-82.6490,10.0,1.5,230.0,,'1111122,1111122,1111122' 
COMPS,ioos:station:USF.COMPS:CAM:1,2011-08-03T15:00:00Z,27.7650,-82.6490,10.0,2.1,230.0,,'1111122,1111122,1111122' 
COMPS,ioos:station:USF.COMPS:CAM:1,2011-08-03T16:00:00Z,27.7650,-82.6490,10.0,2.1,240.0,,'1111122,1111122,1111122' 
COMPS,ioos:station:USF.COMPS:CAM:1,2011-08-03T17:00:00Z,27.7650,-82.6490,10.0,2.6,250.0,,'1111122,1111122,1111122' 
COMPS,ioos:station:USF.COMPS:CAM:1,2011-08-03T18:00:00Z,27.7650,-82.6490,10.0,2.6,250.0,,'1111122,1111122,1111122' 
COMPS,ioos:station:USF.COMPS:CAM:1,2011-08-03T19:00:00Z,27.7650,-82.6490,10.0,2.1,240.0,,'1111122,1111122,1111122' 
COMPS,ioos:station:USF.COMPS:CAM:1,2011-08-03T20:00:00Z,27.7650,-82.6490,10.0,2.6,230.0,,'1111122,1111122,1111122' 
COMPS,ioos:station:USF.COMPS:CAM:1,2011-08-03T21:00:00Z,27.7650,-82.6490,10.0,2.6,250.0,,'1111122,1111122,1111122' 
COMPS,ioos:station:USF.COMPS:CAM:1,2011-08-03T22:00:00Z,27.7650,-82.6490,10.0,2.1,240.0,,'1111122,1111122,1111122' 
COMPS,ioos:station:USF.COMPS:CAM:1,2011-08-03T23:00:00Z,27.7650,-82.6490,10.0,1.5,240.0,,'1111122,1111122,1111122' 
COMPS,ioos:station:USF.COMPS:CAM:1,2011-08-04T00:00:00Z,27.7650,-82.6490,10.0,1.5,250.0,,'1111122,1111122,1111122' 
COMPS,ioos:station:USF.COMPS:CAM:1,2011-08-04T01:00:00Z,27.7650,-82.6490,10.0,1.0,240.0,,'1111122,1111122,1111122' 
COMPS,ioos:station:USF.COMPS:CAM:1,2011-08-04T13:00:00Z,27.7650,-82.6490,10.0,0.5,130.0,,'1111122,1111122,1111122' 
COMPS,ioos:station:USF.COMPS:CAM:1,2011-08-04T14:00:00Z,27.7650,-82.6490,10.0,1.0,140.0,,'1111122,1111122,1111122' 
COMPS,ioos:station:USF.COMPS:CAM:1,2011-08-04T15:00:00Z,27.7650,-82.6490,10.0,2.1,130.0,,'1111122,1111122,1111122' 
COMPS,ioos:station:USF.COMPS:CAM:1,2011-08-04T16:00:00Z,27.7650,-82.6490,10.0,1.5,210.0,,'1111122,1111122,1111122' 
COMPS,ioos:station:USF.COMPS:CAM:1,2011-08-04T17:00:00Z,27.7650,-82.6490,10.0,1.5,220.0,,'1111122,1111122,1111122' 
COMPS,ioos:station:USF.COMPS:CAM:1,2011-08-04T18:00:00Z,27.7650,-82.6490,10.0,2.1,360.0,,'1111122,1111122,1111122' 
COMPS,ioos:station:USF.COMPS:CAM:1,2011-08-04T19:00:00Z,27.7650,-82.6490,10.0,1.5,210.0,,'1111122,1111122,1111122' 
COMPS,ioos:station:USF.COMPS:CAM:1,2011-08-04T20:00:00Z,27.7650,-82.6490,10.0,1.0,210.0,,'1111122,1111122,1111122' 
COMPS,ioos:station:USF.COMPS:CAM:1,2011-08-04T21:00:00Z,27.7650,-82.6490,10.0,1.5,210.0,,'1111122,1111122,1111122' 
COMPS,ioos:station:USF.COMPS:CAM:1,2011-08-04T22:00:00Z,27.7650,-82.6490,10.0,1.5,210.0,,'1111122,1111122,1111122' 
COMPS,ioos:station:USF.COMPS:CAM:1,2011-08-05T00:00:00Z,27.7650,-82.6490,10.0,1.5,230.0,,'1111122,1111122,1111122' 
COMPS,ioos:station:USF.COMPS:CAM:1,2011-08-05T01:00:00Z,27.7650,-82.6490,10.0,0.5,210.0,,'1111122,1111122,1111122' 
COMPS,ioos:station:USF.COMPS:CAM:1,2011-08-05T09:00:00Z,27.7650,-82.6490,10.0,2.1,90.0,,'1111122,1111122,1111122' 
COMPS,ioos:station:USF.COMPS:CAM:1,2011-08-05T13:00:00Z,27.7650,-82.6490,10.0,1.5,110.0,,'1111122,1111122,1111122' 
COMPS,ioos:station:USF.COMPS:CAM:1,2011-08-05T18:00:00Z,27.7650,-82.6490,10.0,2.6,240.0,,'1111122,1111122,1111122' 
COMPS,ioos:station:USF.COMPS:CAM:1,2011-08-05T19:00:00Z,27.7650,-82.6490,10.0,1.0,130.0,,'1111122,1111122,1111122' 
COMPS,ioos:station:USF.COMPS:CAM:1,2011-08-05T20:00:00Z,27.7650,-82.6490,10.0,1.0,210.0,,'1111122,1111122,1111122' 
COMPS,ioos:station:USF.COMPS:CAM:1,2011-08-05T21:00:00Z,27.7650,-82.6490,10.0,1.0,260.0,,'1111122,1111122,1111122' 
COMPS,ioos:station:USF.COMPS:CAM:1,2011-08-05T22:00:00Z,27.7650,-82.6490,10.0,1.5,300.0,,'1111122,1111122,1111122' 
COMPS,ioos:station:USF.COMPS:CAM:1,2011-08-05T23:00:00Z,27.7650,-82.6490,10.0,2.1,270.0,,'1111122,1111122,1111122' 
COMPS,ioos:station:USF.COMPS:CAM:1,2011-08-06T00:00:00Z,27.7650,-82.6490,10.0,1.0,260.0,,'1111122,1111122,1111122' 
COMPS,ioos:station:USF.COMPS:CAM:1,2011-08-06T01:00:00Z,27.7650,-82.6490,10.0,0.5,220.0,,'1111122,1111122,1111122' 
COMPS,ioos:station:USF.COMPS:CAM:1,2011-08-06T02:00:00Z,27.7650,-82.6490,10.0,0.5,230.0,,'1111122,1111122,1111122' 
COMPS,ioos:station:USF.COMPS:CAM:1,2011-08-06T05:00:00Z,27.7650,-82.6490,10.0,1.0,90.0,,'1111122,1111122,1111122' 
COMPS,ioos:station:USF.COMPS:CAM:1,2011-08-06T06:00:00Z,27.7650,-82.6490,10.0,0.5,100.0,,'1111122,1111122,1111122' 
COMPS,ioos:station:USF.COMPS:CAM:1,2011-08-06T07:00:00Z,27.7650,-82.6490,10.0,1.0,70.0,,'1111122,1111122,1111122' 
COMPS,ioos:station:USF.COMPS:CAM:1,2011-08-06T08:00:00Z,27.7650,-82.6490,10.0,1.5,90.0,,'1111122,1111122,1111122' 
COMPS,ioos:station:USF.COMPS:CAM:1,2011-08-06T09:00:00Z,27.7650,-82.6490,10.0,1.0,110.0,,'1111122,1111122,1111122' 
COMPS,ioos:station:USF.COMPS:CAM:1,2011-08-06T10:00:00Z,27.7650,-82.6490,10.0,1.0,110.0,,'1111122,1111122,1111122' 
COMPS,ioos:station:USF.COMPS:CAM:1,2011-08-06T11:00:00Z,27.7650,-82.6490,10.0,1.5,120.0,,'1111122,1111122,1111122' 
COMPS,ioos:station:USF.COMPS:CAM:1,2011-08-06T12:00:00Z,27.7650,-82.6490,10.0,1.0,110.0,,'1111122,1111122,1111122' 
COMPS,ioos:station:USF.COMPS:CAM:1,2011-08-06T13:00:00Z,27.7650,-82.6490,10.0,1.5,110.0,,'1111122,1111122,1111122' 
COMPS,ioos:station:USF.COMPS:CAM:1,2011-08-06T14:00:00Z,27.7650,-82.6490,10.0,1.0,70.0,,'1111122,1111122,1111122' 
COMPS,ioos:station:USF.COMPS:CAM:1,2011-08-06T15:00:00Z,27.7650,-82.6490,10.0,1.0,80.0,,'1111122,1111122,1111122' 
COMPS,ioos:station:USF.COMPS:CAM:1,2011-08-06T16:00:00Z,27.7650,-82.6490,10.0,2.1,120.0,,'1111122,1111122,1111122' 
COMPS,ioos:station:USF.COMPS:CAM:1,2011-08-06T17:00:00Z,27.7650,-82.6490,10.0,1.0,170.0,,'1111122,1111122,1111122' 
COMPS,ioos:station:USF.COMPS:CAM:1,2011-08-06T18:00:00Z,27.7650,-82.6490,10.0,2.1,260.0,,'1111122,1111122,1111122' 
COMPS,ioos:station:USF.COMPS:CAM:1,2011-08-06T19:00:00Z,27.7650,-82.6490,10.0,2.6,260.0,,'1111122,1111122,1111122' 
COMPS,ioos:station:USF.COMPS:CAM:1,2011-08-06T20:00:00Z,27.7650,-82.6490,10.0,2.6,280.0,,'1111122,1111122,1111122' 
COMPS,ioos:station:USF.COMPS:CAM:1,2011-08-06T21:00:00Z,27.7650,-82.6490,10.0,2.1,230.0,,'1111122,1111122,1111122' 
COMPS,ioos:station:USF.COMPS:CAM:1,2011-08-06T22:00:00Z,27.7650,-82.6490,10.0,1.0,260.0,,'1111122,1111122,1111122' 
COMPS,ioos:station:USF.COMPS:CAM:1,2011-08-06T23:00:00Z,27.7650,-82.6490,10.0,3.1,270.0,,'1111122,1111122,1111122' 
COMPS,ioos:station:USF.COMPS:CAM:1,2011-08-07T00:00:00Z,27.7650,-82.6490,10.0,2.6,270.0,,'1111122,1111122,1111122' 
COMPS,ioos:station:USF.COMPS:CAM:1,2011-08-07T01:00:00Z,27.7650,-82.6490,10.0,2.6,270.0,,'1111122,1111122,1111122' 
COMPS,ioos:station:USF.COMPS:CAM:1,2011-08-07T02:00:00Z,27.7650,-82.6490,10.0,1.0,260.0,,'1111122,1111122,1111122' 
COMPS,ioos:station:USF.COMPS:CAM:1,2011-08-07T03:00:00Z,27.7650,-82.6490,10.0,1.5,270.0,,'1111122,1111122,1111122' 
COMPS,ioos:station:USF.COMPS:CAM:1,2011-08-07T04:00:00Z,27.7650,-82.6490,10.0,1.5,270.0,,'1111122,1111122,1111122' 
COMPS,ioos:station:USF.COMPS:CAM:1,2011-08-07T05:00:00Z,27.7650,-82.6490,10.0,0.5,230.0,,'1111122,1111122,1111122' 
COMPS,ioos:station:USF.COMPS:CAM:1,2011-08-07T13:00:00Z,27.7650,-82.6490,10.0,1.5,230.0,,'1111122,1111122,1111122' 
COMPS,ioos:station:USF.COMPS:CAM:1,2011-08-07T14:00:00Z,27.7650,-82.6490,10.0,2.1,220.0,,'1111122,1111122,1111122' 
COMPS,ioos:station:USF.COMPS:CAM:1,2011-08-07T15:00:00Z,27.7650,-82.6490,10.0,2.1,240.0,,'1111122,1111122,1111122' 
COMPS,ioos:station:USF.COMPS:CAM:1,2011-08-07T16:00:00Z,27.7650,-82.6490,10.0,2.1,240.0,,'1111122,1111122,1111122' 
COMPS,ioos:station:USF.COMPS:CAM:1,2011-08-07T17:00:00Z,27.7650,-82.6490,10.0,2.6,240.0,,'1111122,1111122,1111122' 
COMPS,ioos:station:USF.COMPS:CAM:1,2011-08-07T18:00:00Z,27.7650,-82.6490,10.0,2.6,220.0,,'1111122,1111122,1111122' 
COMPS,ioos:station:USF.COMPS:CAM:1,2011-08-07T19:00:00Z,27.7650,-82.6490,10.0,3.1,230.0,,'1111122,1111122,1111122' 
COMPS,ioos:station:USF.COMPS:CAM:1,2011-08-07T20:00:00Z,27.7650,-82.6490,10.0,2.6,230.0,,'1111122,1111122,1111122' 
COMPS,ioos:station:USF.COMPS:CAM:1,2011-08-07T21:00:00Z,27.7650,-82.6490,10.0,3.1,240.0,,'1111122,1111122,1111122' 
COMPS,ioos:station:USF.COMPS:CAM:1,2011-08-07T22:00:00Z,27.7650,-82.6490,10.0,2.6,220.0,,'1111122,1111122,1111122' 
COMPS,ioos:station:USF.COMPS:CAM:1,2011-08-07T23:00:00Z,27.7650,-82.6490,10.0,2.1,250.0,,'1111122,1111122,1111122' 
COMPS,ioos:station:USF.COMPS:CAM:1,2011-08-08T00:00:00Z,27.7650,-82.6490,10.0,1.0,240.0,,'1111122,1111122,1111122' 
COMPS,ioos:station:USF.COMPS:CAM:1,2011-08-08T01:00:00Z,27.7650,-82.6490,10.0,1.0,250.0,,'1111122,1111122,1111122' 
COMPS,ioos:station:USF.COMPS:CAM:1,2011-08-08T04:00:00Z,27.7650,-82.6490,10.0,1.0,200.0,,'1111122,1111122,1111122' 
COMPS,ioos:station:USF.COMPS:CAM:1,2011-08-08T05:00:00Z,27.7650,-82.6490,10.0,2.1,210.0,,'1111122,1111122,1111122' 
COMPS,ioos:station:USF.COMPS:CAM:1,2011-08-08T06:00:00Z,27.7650,-82.6490,10.0,2.1,220.0,,'1111122,1111122,1111122' 
COMPS,ioos:station:USF.COMPS:CAM:1,2011-08-08T07:00:00Z,27.7650,-82.6490,10.0,1.0,220.0,,'1111122,1111122,1111122' 
COMPS,ioos:station:USF.COMPS:CAM:1,2011-08-08T08:00:00Z,27.7650,-82.6490,10.0,1.5,230.0,,'1111122,1111122,1111122' 
COMPS,ioos:station:USF.COMPS:CAM:1,2011-08-08T09:00:00Z,27.7650,-82.6490,10.0,1.0,230.0,,'1111122,1111122,1111122' 
COMPS,ioos:station:USF.COMPS:CAM:1,2011-08-08T10:00:00Z,27.7650,-82.6490,10.0,1.5,230.0,,'1111122,1111122,1111122' 
COMPS,ioos:station:USF.COMPS:CAM:1,2011-08-08T11:00:00Z,27.7650,-82.6490,10.0,1.5,230.0,,'1111122,1111122,1111122' 
COMPS,ioos:station:USF.COMPS:CAM:1,2011-08-08T12:00:00Z,27.7650,-82.6490,10.0,1.0,230.0,,'1111122,1111122,1111122' 
COMPS,ioos:station:USF.COMPS:CAM:1,2011-08-08T13:00:00Z,27.7650,-82.6490,10.0,2.6,230.0,,'1111122,1111122,1111122' 
COMPS,ioos:station:USF.COMPS:CAM:1,2011-08-08T14:00:00Z,27.7650,-82.6490,10.0,2.6,230.0,,'1111122,1111122,1111122' 
COMPS,ioos:station:USF.COMPS:CAM:1,2011-08-08T15:00:00Z,27.7650,-82.6490,10.0,3.1,220.0,,'1111122,1111122,1111122' 
COMPS,ioos:station:USF.COMPS:CAM:1,2011-08-08T16:00:00Z,27.7650,-82.6490,10.0,2.6,230.0,,'1111122,1111122,1111122' 
COMPS,ioos:station:USF.COMPS:CAM:1,2011-08-08T17:00:00Z,27.7650,-82.6490,10.0,3.1,230.0,,'1111122,1111122,1111122' 
COMPS,ioos:station:USF.COMPS:CAM:1,2011-08-08T18:00:00Z,27.7650,-82.6490,10.0,4.6,230.0,,'1111122,1111122,1111122' 
COMPS,ioos:station:USF.COMPS:CAM:1,2011-08-08T19:00:00Z,27.7650,-82.6490,10.0,2.1,230.0,,'1111122,1111122,1111122' 
COMPS,ioos:station:USF.COMPS:CAM:1,2011-08-08T20:00:00Z,27.7650,-82.6490,10.0,3.1,230.0,,'1111122,1111122,1111122' 
COMPS,ioos:station:USF.COMPS:CAM:1,2011-08-08T21:00:00Z,27.7650,-82.6490,10.0,2.6,230.0,,'1111122,1111122,1111122' 
COMPS,ioos:station:USF.COMPS:CAM:1,2011-08-08T22:00:00Z,27.7650,-82.6490,10.0,2.6,250.0,,'1111122,1111122,1111122' 
COMPS,ioos:station:USF.COMPS:CAM:1,2011-08-08T23:00:00Z,27.7650,-82.6490,10.0,2.1,230.0,,'1111122,1111122,1111122' 
COMPS,ioos:station:USF.COMPS:CAM:1,2011-08-09T00:00:00Z,27.7650,-82.6490,10.0,2.1,240.0,,'1111122,1111122,1111122' 
COMPS,ioos:station:USF.COMPS:CAM:1,2011-08-09T01:00:00Z,27.7650,-82.6490,10.0,1.0,230.0,,'1111122,1111122,1111122' 
COMPS,ioos:station:USF.COMPS:CAM:1,2011-08-09T02:00:00Z,27.7650,-82.6490,10.0,1.0,220.0,,'1111122,1111122,1111122' 
COMPS,ioos:station:USF.COMPS:CAM:1,2011-08-09T03:00:00Z,27.7650,-82.6490,10.0,1.0,220.0,,'1111122,1111122,1111122' 
COMPS,ioos:station:USF.COMPS:CAM:1,2011-08-09T04:00:00Z,27.7650,-82.6490,10.0,1.5,230.0,,'1111122,1111122,1111122' 
COMPS,ioos:station:USF.COMPS:CAM:1,2011-08-09T05:00:00Z,27.7650,-82.6490,10.0,0.5,240.0,,'1111122,1111122,1111122' 
COMPS,ioos:station:USF.COMPS:CAM:1,2011-08-09T06:00:00Z,27.7650,-82.6490,10.0,1.0,250.0,,'1111122,1111122,1111122' 
COMPS,ioos:station:USF.COMPS:CAM:1,2011-08-09T07:00:00Z,27.7650,-82.6490,10.0,1.5,230.0,,'1111122,1111122,1111122' 
COMPS,ioos:station:USF.COMPS:CAM:1,2011-08-09T08:00:00Z,27.7650,-82.6490,10.0,2.1,240.0,,'1111122,1111122,1111122' 
COMPS,ioos:station:USF.COMPS:CAM:1,2011-08-09T09:00:00Z,27.7650,-82.6490,10.0,0.5,240.0,,'1111122,1111122,1111122' 
COMPS,ioos:station:USF.COMPS:CAM:1,2011-08-09T10:00:00Z,27.7650,-82.6490,10.0,1.0,230.0,,'1111122,1111122,1111122' 
COMPS,ioos:station:USF.COMPS:CAM:1,2011-08-09T11:00:00Z,27.7650,-82.6490,10.0,1.0,220.0,,'1111122,1111122,1111122' 
COMPS,ioos:station:USF.COMPS:CAM:1,2011-08-09T12:00:00Z,27.7650,-82.6490,10.0,2.6,280.0,,'1111122,1111122,1111122' 
COMPS,ioos:station:USF.COMPS:CAM:1,2011-08-09T13:00:00Z,27.7650,-82.6490,10.0,1.0,240.0,,'1111122,1111122,1111122' 
COMPS,ioos:station:USF.COMPS:CAM:1,2011-08-09T14:00:00Z,27.7650,-82.6490,10.0,0.5,240.0,,'1111122,1111122,1111122' 
COMPS,ioos:station:USF.COMPS:CAM:1,2011-08-09T16:00:00Z,27.7650,-82.6490,10.0,0.5,290.0,,'1111122,1111122,1111122' 
COMPS,ioos:station:USF.COMPS:CAM:1,2011-08-09T17:00:00Z,27.7650,-82.6490,10.0,1.0,190.0,,'1111122,1111122,1111122' 
COMPS,ioos:station:USF.COMPS:CAM:1,2011-08-09T19:00:00Z,27.7650,-82.6490,10.0,2.1,280.0,,'1111122,1111122,1111122' 
COMPS,ioos:station:USF.COMPS:CAM:1,2011-08-09T20:00:00Z,27.7650,-82.6490,10.0,2.1,270.0,,'1111122,1111122,1111122' 
COMPS,ioos:station:USF.COMPS:CAM:1,2011-08-09T21:00:00Z,27.7650,-82.6490,10.0,0.5,310.0,,'1111122,1111122,1111122' 
COMPS,ioos:station:USF.COMPS:CAM:1,2011-08-10T06:00:00Z,27.7650,-82.6490,10.0,0.5,210.0,,'1111122,1111122,1111122' 
COMPS,ioos:station:USF.COMPS:CAM:1,2011-08-10T07:00:00Z,27.7650,-82.6490,10.0,0.5,210.0,,'1111122,1111122,1111122' 
COMPS,ioos:station:USF.COMPS:CAM:1,2011-08-10T08:00:00Z,27.7650,-82.6490,10.0,0.5,220.0,,'1111122,1111122,1111122' 
COMPS,ioos:station:USF.COMPS:CAM:1,2011-08-10T09:00:00Z,27.7650,-82.6490,10.0,2.1,220.0,,'1111122,1111122,1111122' 
COMPS,ioos:station:USF.COMPS:CAM:1,2011-08-10T10:00:00Z,27.7650,-82.6490,10.0,2.1,220.0,,'1111122,1111122,1111122' 
COMPS,ioos:station:USF.COMPS:CAM:1,2011-08-10T11:00:00Z,27.7650,-82.6490,10.0,2.1,230.0,,'1111122,1111122,1111122' 
COMPS,ioos:station:USF.COMPS:CAM:1,2011-08-10T13:00:00Z,27.7650,-82.6490,10.0,5.1,300.0,,'1111122,1111122,1111122' 
COMPS,ioos:station:USF.COMPS:CAM:1,2011-08-10T14:00:00Z,27.7650,-82.6490,10.0,1.0,10.0,,'1111122,1111122,1111122' 
COMPS,ioos:station:USF.COMPS:CAM:1,2011-08-10T15:00:00Z,27.7650,-82.6490,10.0,1.0,240.0,,'1111122,1111122,1111122' 
COMPS,ioos:station:USF.COMPS:CAM:1,2011-08-10T16:00:00Z,27.7650,-82.6490,10.0,1.5,260.0,,'1111122,1111122,1111122' 
COMPS,ioos:station:USF.COMPS:CAM:1,2011-08-10T17:00:00Z,27.7650,-82.6490,10.0,1.5,240.0,,'1111122,1111122,1111122' 
COMPS,ioos:station:USF.COMPS:CAM:1,2011-08-10T18:00:00Z,27.7650,-82.6490,10.0,2.6,230.0,,'1111122,1111122,1111122' 
COMPS,ioos:station:USF.COMPS:CAM:1,2011-08-10T19:00:00Z,27.7650,-82.6490,10.0,2.6,250.0,,'1111122,1111122,1111122' 
COMPS,ioos:station:USF.COMPS:CAM:1,2011-08-10T20:00:00Z,27.7650,-82.6490,10.0,2.6,250.0,,'1111122,1111122,1111122' 
COMPS,ioos:station:USF.COMPS:CAM:1,2011-08-10T21:00:00Z,27.7650,-82.6490,10.0,2.6,250.0,,'1111122,1111122,1111122' 
COMPS,ioos:station:USF.COMPS:CAM:1,2011-08-10T22:00:00Z,27.7650,-82.6490,10.0,2.6,230.0,,'1111122,1111122,1111122' 
COMPS,ioos:station:USF.COMPS:CAM:1,2011-08-10T23:00:00Z,27.7650,-82.6490,10.0,2.1,240.0,,'1111122,1111122,1111122' 
COMPS,ioos:station:USF.COMPS:CAM:1,2011-08-11T00:00:00Z,27.7650,-82.6490,10.0,2.1,240.0,,'1111122,1111122,1111122' 
COMPS,ioos:station:USF.COMPS:CAM:1,2011-08-11T01:00:00Z,27.7650,-82.6490,10.0,1.0,240.0,,'1111122,1111122,1111122' 
COMPS,ioos:station:USF.COMPS:CAM:1,2011-08-11T02:00:00Z,27.7650,-82.6490,10.0,1.0,250.0,,'1111122,1111122,1111122' 
COMPS,ioos:station:USF.COMPS:CAM:1,2011-08-11T03:00:00Z,27.7650,-82.6490,10.0,0.5,250.0,,'1111122,1111122,1111122' 
COMPS,ioos:station:USF.COMPS:CAM:1,2011-08-11T12:00:00Z,27.7650,-82.6490,10.0,1.0,240.0,,'1111122,1111122,1111122' 
COMPS,ioos:station:USF.COMPS:CAM:1,2011-08-11T13:00:00Z,27.7650,-82.6490,10.0,2.6,270.0,,'1111122,1111122,1111122' 
COMPS,ioos:station:USF.COMPS:CAM:1,2011-08-11T15:00:00Z,27.7650,-82.6490,10.0,2.6,240.0,,'1111122,1111122,1111122' 
COMPS,ioos:station:USF.COMPS:CAM:1,2011-08-11T16:00:00Z,27.7650,-82.6490,10.0,3.1,270.0,,'1111122,1111122,1111122' 
COMPS,ioos:station:USF.COMPS:CAM:1,2011-08-11T17:00:00Z,27.7650,-82.6490,10.0,2.6,250.0,,'1111122,1111122,1111122' 
COMPS,ioos:station:USF.COMPS:CAM:1,2011-08-11T18:00:00Z,27.7650,-82.6490,10.0,2.6,260.0,,'1111122,1111122,1111122' 
COMPS,ioos:station:USF.COMPS:CAM:1,2011-08-11T19:00:00Z,27.7650,-82.6490,10.0,2.1,260.0,,'1111122,1111122,1111122' 
COMPS,ioos:station:USF.COMPS:CAM:1,2011-08-11T20:00:00Z,27.7650,-82.6490,10.0,2.6,230.0,,'1111122,1111122,1111122' 
COMPS,ioos:station:USF.COMPS:CAM:1,2011-08-11T21:00:00Z,27.7650,-82.6490,10.0,2.6,240.0,,'1111122,1111122,1111122' 
COMPS,ioos:station:USF.COMPS:CAM:1,2011-08-11T22:00:00Z,27.7650,-82.6490,10.0,3.1,270.0,,'1111122,1111122,1111122' 
COMPS,ioos:station:USF.COMPS:CAM:1,2011-08-11T23:00:00Z,27.7650,-82.6490,10.0,3.1,260.0,,'1111122,1111122,1111122' 
COMPS,ioos:station:USF.COMPS:CAM:1,2011-08-12T00:00:00Z,27.7650,-82.6490,10.0,2.6,280.0,,'1111122,1111122,1111122' 
COMPS,ioos:station:USF.COMPS:CAM:1,2011-08-12T01:00:00Z,27.7650,-82.6490,10.0,1.0,250.0,,'1111122,1111122,1111122' 
COMPS,ioos:station:USF.COMPS:CAM:1,2011-08-12T13:00:00Z,27.7650,-82.6490,10.0,1.5,270.0,,'1111122,1111122,1111122' 
COMPS,ioos:station:USF.COMPS:CAM:1,2011-08-12T14:00:00Z,27.7650,-82.6490,10.0,2.1,250.0,,'1111122,1111122,1111122' 
COMPS,ioos:station:USF.COMPS:CAM:1,2011-08-12T15:00:00Z,27.7650,-82.6490,10.0,2.6,270.0,,'1111122,1111122,1111122' 
COMPS,ioos:station:USF.COMPS:CAM:1,2011-08-12T16:00:00Z,27.7650,-82.6490,10.0,1.5,250.0,,'1111122,1111122,1111122' 
COMPS,ioos:station:USF.COMPS:CAM:1,2011-08-12T17:00:00Z,27.7650,-82.6490,10.0,2.1,260.0,,'1111122,1111122,1111122' 
COMPS,ioos:station:USF.COMPS:CAM:1,2011-08-12T18:00:00Z,27.7650,-82.6490,10.0,0.5,220.0,,'1111122,1111122,1111122' 
COMPS,ioos:station:USF.COMPS:CAM:1,2011-08-12T19:00:00Z,27.7650,-82.6490,10.0,1.5,130.0,,'1111122,1111122,1111122' 
COMPS,ioos:station:USF.COMPS:CAM:1,2011-08-12T20:00:00Z,27.7650,-82.6490,10.0,2.6,90.0,,'1111122,1111122,1111122' 
COMPS,ioos:station:USF.COMPS:CAM:1,2011-08-12T21:00:00Z,27.7650,-82.6490,10.0,2.6,260.0,,'1111122,1111122,1111122' 
COMPS,ioos:station:USF.COMPS:CAM:1,2011-08-12T22:00:00Z,27.7650,-82.6490,10.0,2.1,250.0,,'1111122,1111122,1111122' 
COMPS,ioos:station:USF.COMPS:CAM:1,2011-08-12T23:00:00Z,27.7650,-82.6490,10.0,2.1,260.0,,'1111122,1111122,1111122' 
COMPS,ioos:station:USF.COMPS:CAM:1,2011-08-13T00:00:00Z,27.7650,-82.6490,10.0,2.1,260.0,,'1111122,1111122,1111122' 
COMPS,ioos:station:USF.COMPS:CAM:1,2011-08-13T01:00:00Z,27.7650,-82.6490,10.0,1.5,300.0,,'1111122,1111122,1111122' 
COMPS,ioos:station:USF.COMPS:CAM:1,2011-08-13T02:00:00Z,27.7650,-82.6490,10.0,1.5,340.0,,'1111122,1111122,1111122' 
COMPS,ioos:station:USF.COMPS:CAM:1,2011-08-13T03:00:00Z,27.7650,-82.6490,10.0,1.5,290.0,,'1111122,1111122,1111122' 
COMPS,ioos:station:USF.COMPS:CAM:1,2011-08-13T04:00:00Z,27.7650,-82.6490,10.0,0.5,20.0,,'1111122,1111122,1111122' 
COMPS,ioos:station:USF.COMPS:CAM:1,2011-08-13T05:00:00Z,27.7650,-82.6490,10.0,1.0,90.0,,'1111122,1111122,1111122' 
COMPS,ioos:station:USF.COMPS:CAM:1,2011-08-13T06:00:00Z,27.7650,-82.6490,10.0,1.5,110.0,,'1111122,1111122,1111122' 
COMPS,ioos:station:USF.COMPS:CAM:1,2011-08-13T13:00:00Z,27.7650,-82.6490,10.0,1.0,210.0,,'1111122,1111122,1111122' 